McNeal, AZ

11:45 AM MST on February 12, 2016 (GMT -0700)
Bisbee Douglas International

Weather History for KDUG - February, 2014

Change the Weather History Date:

Monday, February 3, 2014

  Actual Average Record
Temperature  
Mean Temperature 43 °F 48 °F  
Max Temperature 59 °F 65 °F 76 °F (1963)
Min Temperature 27 °F 31 °F 5 °F (2011)
Degree Days  
Heating Degree Days 22 17  
Month to date heating degree days 60 51  
Since 1 July heating degree days 1688 1656  
Cooling Degree Days 0 0  
Month to date cooling degree days 0 0  
Year to date cooling degree days 0 0  
Moisture  
Dew Point 15 °F    
Average Humidity 45    
Maximum Humidity 79    
Minimum Humidity 11    
Precipitation  
Precipitation T in 0.02 in 0.62 in (1983)
Month to date precipitation T 0.08  
Year to date precipitation T 0.82  
Sea Level Pressure  
Sea Level Pressure 29.82 in    
Wind  
Wind Speed 9 mph (WSW)    
Max Wind Speed 28 mph    
Max Gust Speed 33 mph    
Visibility 10 miles    
Events      
T = Trace of Precipitation, MM = Missing Value Source: NWS Daily Summary

Daily Weather History Graph

Daily Weather History Graph

Search for Another Location

Airport or City:

Trip Planner

Search our weather history database for the weather conditions in past years. The results will help you decide how hot, cold, wet, or windy it might be!

Date:

Astronomy

Feb. 03, 2014 Rise Set
Actual Time 7:09 AM MST 5:55 PM MST
Civil Twilight 6:44 AM MST 6:20 PM MST
Nautical Twilight 6:15 AM MST 6:49 PM MST
Astronomical Twilight 5:46 AM MST 7:18 PM MST
Moon 9:33 AM MST (2/3) 10:27 PM MST (2/3)
Length of Visible Light 11h 36m
Length of Day
10h 45m
Waxing Crescent, 20% of the Moon is Illuminated
Feb 3
Waxing Crescent
Feb 6
First Quarter
Feb 14
Full
Feb 22
Last Quarter
Mar 1
New

Hourly Weather History & Observations

Time (MST) Temp. Windchill Dew Point Humidity Pressure Visibility Wind Dir Wind Speed Gust Speed Precip Events Conditions
12:56 AM 39.9 °F 36.7 °F 10.9 °F 31% 29.90 in 10.0 mi ENE 4.6 mph - N/A   Clear
1:56 AM 37.9 °F - 12.0 °F 35% 29.89 in 10.0 mi Calm Calm - N/A   Clear
2:56 AM 35.1 °F 31.0 °F 10.9 °F 37% 29.88 in 10.0 mi ESE 4.6 mph - N/A   Clear
3:56 AM 33.1 °F 27.7 °F 10.9 °F 40% 29.86 in 10.0 mi NE 5.8 mph - N/A   Clear
4:56 AM 35.1 °F 30.1 °F 12.0 °F 39% 29.85 in 10.0 mi East 5.8 mph - N/A   Clear
5:56 AM 32.0 °F 23.6 °F 10.9 °F 42% 29.85 in 10.0 mi ESE 10.4 mph - N/A   Clear
6:56 AM 32.0 °F 24.8 °F 10.9 °F 42% 29.86 in 10.0 mi South 8.1 mph - N/A   Clear
7:56 AM 34.0 °F 29.8 °F 12.0 °F 40% 29.85 in 10.0 mi East 4.6 mph - N/A   Clear
8:56 AM 37.9 °F 32.7 °F 12.0 °F 35% 29.86 in 10.0 mi WNW 6.9 mph - N/A   Clear
9:56 AM 50.0 °F - 15.1 °F 25% 29.83 in 10.0 mi Calm Calm - N/A   Clear
10:56 AM 51.1 °F - 12.9 °F 22% 29.80 in 10.0 mi Variable 4.6 mph - N/A   Clear
11:56 AM 57.0 °F - 10.0 °F 15% 29.76 in 10.0 mi SSW 8.1 mph - N/A   Clear
12:56 PM 55.9 °F - 1.9 °F 11% 29.73 in 10.0 mi WSW 19.6 mph 25.3 mph N/A   Mostly Cloudy
1:56 PM 59.0 °F - 6.1 °F 12% 29.69 in 10.0 mi WSW 18.4 mph 25.3 mph N/A   Scattered Clouds
2:56 PM 57.9 °F - 6.1 °F 13% 29.69 in 10.0 mi West 13.8 mph 21.9 mph N/A   Clear
3:56 PM 55.0 °F - 12.0 °F 18% 29.71 in 10.0 mi West 19.6 mph 28.8 mph N/A   Mostly Cloudy
4:56 PM 53.1 °F - 15.1 °F 22% 29.72 in 10.0 mi WSW 23.0 mph 33.4 mph N/A   Scattered Clouds
5:56 PM 50.0 °F - 19.9 °F 31% 29.77 in 10.0 mi WSW 17.3 mph 26.5 mph N/A   Partly Cloudy
6:56 PM 46.9 °F - 24.1 °F 41% 29.80 in 10.0 mi SW 16.1 mph - N/A   Overcast
7:56 PM 45.0 °F 40.1 °F 23.0 °F 42% 29.83 in 10.0 mi SW 9.2 mph - N/A   Overcast
8:56 PM 43.0 °F 37.2 °F 27.0 °F 53% 29.86 in 10.0 mi NW 10.4 mph - N/A   Overcast
9:56 PM 39.9 °F 36.7 °F 33.1 °F 77% 29.85 in 10.0 mi Variable 4.6 mph - 0.00 in   Overcast
10:56 PM 37.0 °F 33.3 °F 30.9 °F 79% 29.86 in 10.0 mi NNW 4.6 mph - N/A   Clear
11:56 PM 35.1 °F 30.1 °F 32.0 °F 89% 29.86 in 10.0 mi NNW 5.8 mph - N/A   Clear